Weather reports worldwide

Advertisment
Leck, Germany (10022): temperature & dewpoint: 15.06.2018 23:00:00 - 21.06.2018 23:00:00 (CEST)Leck, Germany (10022): temperature 5cm & temperature -5cm: 15.06.2018 23:00:00 - 21.06.2018 23:00:00 (CEST)Leck, Germany (10022): temperature -20cm & temperature -100cm: 15.06.2018 23:00:00 - 21.06.2018 23:00:00 (CEST)Leck, Germany (10022): wind speed & gusts: 15.06.2018 23:00:00 - 21.06.2018 23:00:00 (CEST)Leck, Germany (10022): wind direction: 15.06.2018 23:00:00 - 21.06.2018 23:00:00 (CEST)Leck, Germany (10022): reduced air pressure: 15.06.2018 23:00:00 - 21.06.2018 23:00:00 (CEST)Leck, Germany (10022): visibility: 15.06.2018 23:00:00 - 21.06.2018 23:00:00 (CEST)Leck, Germany (10022): sunshine duration: 15.06.2018 23:00:00 - 21.06.2018 23:00:00 (CEST)Leck, Germany (10022): precipitation: 15.06.2018 23:00:00 - 21.06.2018 23:00:00 (CEST)
Date & Time tt [°C] td [°C] tt 5cm [°C] tt -5cm [°C] tt -20cm [°C] tt -100cm [°C] ff [km/h] ff [kn] fx [km/h] fx [kn] dd ppp [hPa] vv [km] sd [min] rr [mm]
21.06.2018 23:00:00 11,0 7,8 9,5 11,2 15,6 15,0 19 10 40 22 W 1013,9 - 0 0,1
21.06.2018 22:00:00 11,5 7,1 10,4 11,9 15,8 15,0 26 14 41 22 W 1014,1 - 0 0,0
21.06.2018 21:00:00 11,4 6,5 10,5 12,8 16,0 15,0 22 12 50 27 WNW 1014,3 - 13 0,0
21.06.2018 20:00:00 12,4 6,0 11,9 13,8 16,1 15,0 32 17 55 30 WNW 1014,4 - 34 0,0
21.06.2018 19:00:00 12,7 7,0 12,5 14,4 16,1 15,0 32 17 54 29 WNW 1014,2 - 23 0,3
21.06.2018 18:00:00 11,2 8,0 10,9 15,1 16,1 15,0 33 18 62 34 WNW 1013,8 - 23 0,0
21.06.2018 17:00:00 13,0 7,7 13,7 15,6 16,1 15,0 41 22 64 34 WNW 1013,1 - 33 0,0
21.06.2018 16:00:00 13,8 8,7 15,7 15,6 16,1 15,0 34 18 54 29 NW 1012,4 - 17 0,0
21.06.2018 15:00:00 11,7 9,0 11,7 13,4 16,4 15,0 16 9 31 17 WNW 1011,9 - 0 4,3
21.06.2018 14:00:00 10,1 9,4 10,0 13,6 16,7 15,0 10 5 30 16 W 1011,4 - 0 2,6
21.06.2018 13:00:00 10,6 9,2 10,4 14,4 16,9 15,0 18 10 32 17 NW 1010,7 - 0 2,8
21.06.2018 12:00:00 10,6 10,0 10,8 15,3 17,0 15,0 11 6 31 17 WNW 1010,1 - 3 2,3
21.06.2018 11:00:00 12,1 9,9 13,2 16,5 17,0 15,0 13 7 34 18 NW 1009,9 - 1 1,6
21.06.2018 10:00:00 12,4 9,6 12,0 15,9 17,1 15,0 13 7 23 13 W 1009,9 - 0 0,1
21.06.2018 09:00:00 12,7 9,5 12,9 15,6 17,2 14,9 15 8 23 12 W 1010,2 - 0 0,0
21.06.2018 08:00:00 12,7 9,3 12,9 15,4 17,4 14,9 10 6 24 13 W 1010,4 - 0 0,0
21.06.2018 07:00:00 12,6 8,6 12,5 15,2 17,6 14,9 10 5 21 11 WNW 1010,9 - 0 0,0
21.06.2018 06:00:00 12,2 9,5 11,8 15,1 17,8 14,9 6 4 16 8 WNW 1011,2 - 0 0,0
21.06.2018 05:00:00 12,0 9,2 10,7 15,4 18,0 14,9 9 5 25 13 W 1011,6 - 0 0,0
21.06.2018 04:00:00 13,1 9,4 12,7 16,2 18,2 14,9 17 9 26 14 WNW 1012,1 - 0 0,0
21.06.2018 03:00:00 13,7 10,8 13,5 16,7 18,4 14,9 17 9 31 17 WNW 1012,3 - 0 0,0
21.06.2018 02:00:00 14,4 12,7 14,2 17,2 18,6 14,9 18 10 37 20 WNW 1012,5 - 0 0,0
21.06.2018 01:00:00 16,1 14,1 15,9 17,8 18,7 14,9 20 11 40 22 WSW 1013,0 - 0 0,1
21.06.2018 00:00:00 16,3 14,8 16,0 18,1 18,9 14,9 21 11 38 20 WSW 1013,2 - 0 0,0
20.06.2018 23:00:00 16,4 14,8 16,2 18,6 19,0 14,9 23 12 43 23 WSW 1013,6 - 0 0,1
20.06.2018 22:00:00 16,5 15,0 16,5 19,1 19,1 14,9 20 11 35 19 WSW 1013,9 - 0 0,0
20.06.2018 21:00:00 16,5 14,9 16,7 19,8 19,2 14,9 23 12 38 21 SW 1014,2 - 0 0,0
20.06.2018 20:00:00 17,3 15,3 17,8 20,7 19,3 14,9 26 14 46 25 WSW 1014,7 - 0 0,0
20.06.2018 19:00:00 18,3 15,6 19,3 21,2 19,3 14,9 27 14 52 28 WSW 1015,2 - 0 0,0
20.06.2018 18:00:00 18,5 15,8 18,9 22,1 19,2 14,9 36 19 50 27 WSW 1015,6 - 0 0,0
20.06.2018 17:00:00 19,9 15,6 21,3 23,6 18,9 14,9 32 18 53 29 WSW 1016,0 - 1 0,0
20.06.2018 16:00:00 20,3 15,3 21,4 24,4 18,6 14,9 31 17 54 29 WSW 1016,3 - 6 0,0
20.06.2018 15:00:00 20,2 16,9 22,6 24,1 18,3 14,9 29 16 56 31 WSW 1016,6 - 8 0,0
20.06.2018 14:00:00 22,1 17,2 26,9 24,3 18,0 14,9 36 19 53 29 SW 1016,8 - 34 0,0
20.06.2018 13:00:00 18,9 16,3 20,4 20,9 17,8 14,9 34 18 54 29 SW 1017,7 - 0 0,0
20.06.2018 12:00:00 19,1 16,1 20,2 20,9 17,6 14,9 34 19 51 27 SW 1018,0 - 1 0,0
20.06.2018 11:00:00 19,0 16,2 20,6 20,3 17,4 14,9 31 17 50 27 SW 1018,2 - 0 0,0
20.06.2018 10:00:00 18,6 16,0 20,0 19,1 17,4 14,9 32 17 46 25 SSW 1018,1 - 0 0,1
20.06.2018 09:00:00 17,9 15,4 18,3 17,8 17,4 14,9 31 17 49 26 SW 1018,5 - 0 0,0
20.06.2018 08:00:00 17,5 15,2 18,0 16,8 17,5 14,9 18 10 32 17 SSW 1018,6 - 0 0,1
20.06.2018 07:00:00 15,1 13,7 14,7 16,0 17,6 14,9 16 9 26 14 S 1019,1 - 0 0,1
20.06.2018 06:00:00 14,5 12,3 13,9 16,0 17,7 14,9 15 8 21 11 S 1019,7 - 0 0,0
20.06.2018 05:00:00 14,1 11,8 14,0 16,1 17,9 14,9 10 5 16 9 S 1020,0 - 0 0,0
20.06.2018 04:00:00 13,8 11,3 13,7 16,1 18,1 14,9 8 4 12 7 S 1020,5 - 0 0,0
20.06.2018 03:00:00 13,5 11,0 13,3 16,1 18,4 14,9 5 3 14 8 S 1021,0 - 0 0,0
20.06.2018 02:00:00 13,5 10,3 12,5 16,1 18,6 14,9 10 5 16 9 WSW 1021,6 - 0 0,0
20.06.2018 01:00:00 13,4 9,7 13,0 16,2 18,9 14,9 11 6 19 10 WSW 1021,9 - 0 0,0
20.06.2018 00:00:00 13,2 9,3 12,5 16,3 19,3 14,9 13 7 20 11 WSW 1022,1 - 0 0,0
19.06.2018 23:00:00 12,4 8,8 10,6 17,2 19,6 14,9 9 5 18 10 WSW 1022,1 - 0 0,0
19.06.2018 22:00:00 13,4 8,6 11,8 18,6 19,8 14,9 12 7 23 13 W 1022,1 - 8 0,0
19.06.2018 21:00:00 14,4 8,4 14,3 20,6 20,0 14,9 19 10 33 18 W 1021,9 - 57 0,0
19.06.2018 20:00:00 15,1 9,1 15,4 22,4 20,0 14,9 22 12 36 19 W 1021,9 - 42 0,0
19.06.2018 19:00:00 16,0 9,6 17,6 24,0 19,8 14,9 22 12 36 19 WSW 1021,7 - 55 0,0
19.06.2018 18:00:00 16,8 7,8 20,0 25,3 19,5 14,9 21 11 44 24 W 1021,6 - 59 0,0
19.06.2018 17:00:00 17,2 8,6 21,4 26,3 19,2 14,9 26 14 43 23 W 1021,5 - 60 0,0
19.06.2018 16:00:00 17,2 6,9 21,7 26,7 18,7 14,9 27 14 46 25 W 1021,2 - 60 0,0
19.06.2018 15:00:00 17,5 8,2 22,1 26,3 18,2 14,9 32 17 48 26 W 1020,6 - 60 0,0
19.06.2018 14:00:00 17,9 9,3 22,4 26,0 17,7 14,9 30 16 44 24 W 1020,1 - 58 0,0
19.06.2018 13:00:00 18,0 8,9 22,7 25,1 17,2 14,9 29 16 49 27 W 1019,5 - 59 0,0
19.06.2018 12:00:00 18,8 11,3 23,3 23,3 16,8 14,9 21 12 44 24 W 1018,8 - 49 0,0
19.06.2018 11:00:00 17,8 13,6 20,8 20,5 16,6 14,9 24 13 39 21 W 1018,5 - 24 0,0
19.06.2018 10:00:00 16,5 12,5 17,3 18,1 16,5 14,9 29 15 41 22 W 1018,1 - 0 0,0
19.06.2018 09:00:00 17,1 13,3 17,7 17,7 16,4 14,9 26 14 42 23 W 1017,0 - 4 0,0
19.06.2018 08:00:00 16,7 13,9 17,4 16,5 16,4 14,9 22 12 34 18 WSW 1016,3 13 0 0,0
19.06.2018 07:00:00 16,1 14,2 15,9 15,8 16,4 14,9 17 9 31 17 WSW 1016,0 18 0 0,0
19.06.2018 06:00:00 15,9 14,1 15,5 15,6 16,5 14,9 22 12 32 17 WSW 1015,8 19 0 0,1
19.06.2018 05:00:00 15,8 14,0 15,4 15,5 16,6 14,9 20 11 33 18 SW 1015,5 15 0 0,1
19.06.2018 04:00:00 15,8 14,0 15,3 15,2 16,7 14,9 20 11 33 18 WSW 1015,8 15 0 0,0
19.06.2018 03:00:00 14,9 13,7 13,8 15,1 16,9 14,9 14 8 24 13 SW 1016,1 11 0 0,0
19.06.2018 02:00:00 14,9 13,5 14,1 15,3 17,0 14,9 16 8 29 16 WSW 1016,4 14 0 0,0
19.06.2018 01:00:00 14,7 13,3 13,7 15,5 17,2 14,9 16 9 29 16 WSW 1016,6 12 0 0,0
19.06.2018 00:00:00 14,9 13,5 14,0 16,0 17,3 14,9 16 8 29 16 WSW 1016,7 10 0 0,0
18.06.2018 23:00:00 15,7 13,9 15,4 16,7 17,4 14,9 21 12 32 18 WSW 1016,6 12 0 0,1
18.06.2018 22:00:00 16,0 13,9 15,6 17,1 17,5 14,9 13 7 22 12 SW 1016,1 15 0 0,0
18.06.2018 21:00:00 16,2 13,7 15,9 17,6 17,5 14,9 12 6 25 14 SW 1016,0 18 0 0,0
18.06.2018 20:00:00 16,3 13,8 16,4 18,1 17,5 14,9 16 9 27 15 WSW 1016,3 18 0 0,0
18.06.2018 19:00:00 16,9 14,0 17,4 18,8 17,5 14,9 19 10 31 17 WSW 1016,3 13 1 0,0
18.06.2018 18:00:00 17,1 14,1 17,4 18,3 17,4 14,9 22 12 39 21 WSW 1016,2 - 0 0,0
18.06.2018 17:00:00 16,8 14,9 16,6 18,3 17,4 14,9 23 13 42 23 SW 1016,3 - 0 0,1
18.06.2018 16:00:00 16,5 15,1 16,0 18,0 17,4 14,9 28 15 45 24 SW 1016,5 6 0 0,2
18.06.2018 15:00:00 16,7 14,7 16,2 17,9 17,4 14,9 29 16 42 23 SSW 1016,6 - 0 0,1
18.06.2018 14:00:00 15,8 14,8 15,7 18,1 17,4 14,9 18 10 39 21 SSW 1016,5 - 0 0,2
18.06.2018 13:00:00 16,4 13,4 17,0 19,0 17,3 14,9 26 14 41 22 SSW 1016,7 - 0 0,0
18.06.2018 12:00:00 16,3 12,9 17,0 19,5 17,1 14,9 24 13 38 21 SSW 1016,6 - 0 0,0
18.06.2018 11:00:00 16,7 12,7 18,1 19,9 16,9 14,9 26 14 42 23 SSW 1016,4 - 10 0,0
18.06.2018 10:00:00 16,5 12,8 18,3 18,1 16,8 14,9 21 11 35 19 SW 1016,7 - 0 0,0
18.06.2018 09:00:00 16,0 13,0 16,7 16,6 16,8 14,9 19 10 31 17 SSW 1016,5 - 0 0,0
18.06.2018 08:00:00 15,6 12,3 16,0 15,8 16,9 14,9 15 8 27 15 SSW 1016,5 18 10 0,1
18.06.2018 07:00:00 14,9 12,4 14,3 14,6 17,1 14,9 11 6 18 10 S 1016,4 17 60 0,0
18.06.2018 06:00:00 11,7 10,7 10,7 13,2 17,4 14,9 6 4 11 6 SSW 1016,7 - 4 0,0
18.06.2018 05:00:00 10,6 10,2 8,4 13,3 17,7 14,9 8 4 11 6 S 1016,7 - 0 0,0
18.06.2018 04:00:00 11,0 10,6 8,3 13,8 18,0 14,9 7 4 10 5 S 1016,8 - 0 0,0
18.06.2018 03:00:00 11,3 10,7 8,7 14,6 18,4 14,9 6 4 10 5 SSW 1016,8 - 0 0,0
18.06.2018 02:00:00 11,3 10,7 8,9 15,1 18,7 14,9 5 3 9 5 SSW 1017,0 - 0 0,0
18.06.2018 01:00:00 12,6 11,2 10,5 15,9 19,0 14,9 8 5 16 8 SW 1016,9 - 0 0,0
18.06.2018 00:00:00 13,5 11,4 11,9 16,8 19,3 14,9 11 6 19 10 WSW 1016,8 - 0 0,0
17.06.2018 23:00:00 13,7 11,4 12,6 17,6 19,6 14,9 13 7 17 9 SW 1016,6 - 0 0,0
17.06.2018 22:00:00 14,2 11,2 13,0 18,8 19,9 14,9 13 7 23 12 WSW 1016,4 - 5 0,0
17.06.2018 21:00:00 15,0 10,9 14,4 20,4 20,0 14,9 16 9 29 16 WSW 1016,3 - 15 0,0
17.06.2018 20:00:00 16,0 10,9 16,6 22,3 20,0 14,9 19 10 40 21 WSW 1016,1 - 34 0,0
17.06.2018 19:00:00 16,9 9,4 18,4 24,5 19,8 14,9 24 13 40 22 W 1015,6 - 58 0,0
17.06.2018 18:00:00 18,2 9,1 21,5 25,9 19,5 14,9 23 12 41 22 W 1015,3 - 60 0,0
17.06.2018 17:00:00 18,3 9,3 22,2 26,5 19,1 14,9 26 14 45 25 W 1015,1 - 58 0,0
17.06.2018 16:00:00 18,4 9,8 22,7 26,5 18,6 14,9 29 16 48 26 W 1014,7 - 54 0,0
17.06.2018 15:00:00 18,5 10,2 22,8 26,5 18,0 14,9 29 16 45 24 W 1014,2 - 58 0,0
17.06.2018 14:00:00 19,1 11,3 23,7 25,4 17,5 14,9 30 16 41 22 W 1013,7 - 39 0,0
17.06.2018 13:00:00 18,1 10,5 21,6 23,3 17,1 14,9 27 15 39 21 WSW 1013,2 - 18 0,0
17.06.2018 12:00:00 16,8 11,5 18,7 22,2 16,8 14,9 24 13 49 27 WSW 1012,9 - 26 0,0
17.06.2018 11:00:00 17,1 13,1 20,3 19,3 16,6 14,9 30 16 48 26 SW 1012,3 - 8 0,0
17.06.2018 10:00:00 17,2 13,2 19,5 19,1 16,4 14,9 23 13 41 22 SSW 1012,1 - 21 0,0
17.06.2018 09:00:00 16,7 12,7 18,5 17,8 16,4 14,9 23 12 38 21 SW 1011,9 - 46 0,0
17.06.2018 08:00:00 16,3 12,5 17,1 16,1 16,4 14,9 19 10 31 17 SW 1011,8 - 58 0,0
17.06.2018 07:00:00 15,0 11,6 14,7 14,4 16,6 14,9 13 7 22 12 SSW 1012,0 - 31 0,0
17.06.2018 06:00:00 13,3 12,0 12,5 13,7 16,8 15,0 9 5 14 7 S 1012,1 - 0 0,0
17.06.2018 05:00:00 12,1 11,8 9,9 13,7 17,0 15,0 8 5 11 6 S 1012,3 - 0 0,0
17.06.2018 04:00:00 13,5 13,1 12,0 14,9 17,2 14,9 8 4 15 8 S 1012,4 - 0 0,0
17.06.2018 03:00:00 14,5 13,8 13,7 15,3 17,4 14,9 11 6 16 9 S 1012,7 - 0 0,0
17.06.2018 02:00:00 14,7 13,1 13,8 15,3 17,6 14,9 10 5 15 8 S 1013,0 - 0 0,0
17.06.2018 01:00:00 14,1 13,4 13,2 15,5 17,8 14,9 8 4 9 5 S 1012,6 - 0 0,0
17.06.2018 00:00:00 14,0 13,5 12,7 15,7 18,1 14,9 5 3 8 4 S 1012,9 - 0 0,0
16.06.2018 23:00:00 14,6 13,9 12,2 16,4 18,2 14,9 6 3 14 7 S 1012,9 - 0 0,0
16.06.2018 22:00:00 16,5 14,8 15,4 17,9 18,4 14,9 8 4 14 8 SW 1013,0 - 0 0,0
16.06.2018 21:00:00 17,6 15,0 16,9 19,0 18,4 14,9 7 4 12 6 SW 1012,7 - 0 0,0
16.06.2018 20:00:00 18,4 14,7 18,7 19,9 18,4 14,9 7 4 11 6 SSW 1012,6 - 10 0,0
16.06.2018 19:00:00 18,1 15,6 18,2 19,9 18,4 14,9 6 3 10 5 SW 1012,6 - 0 0,0
16.06.2018 18:00:00 17,9 16,2 17,4 20,4 18,3 14,9 8 4 14 8 WSW 1012,8 - 0 0,6
16.06.2018 17:00:00 19,3 16,1 18,6 22,1 18,0 14,9 4 2 10 6 S 1013,1 - 0 0,1
16.06.2018 16:00:00 19,7 16,0 21,5 22,9 17,7 14,9 8 4 16 9 E 1013,3 - 0 0,0
16.06.2018 15:00:00 19,1 15,0 22,1 22,3 17,5 14,9 13 7 24 13 E 1013,3 - 7 0,0
16.06.2018 14:00:00 18,6 14,7 21,5 20,5 17,4 14,9 18 10 26 14 E 1013,6 - 1 0,0
16.06.2018 13:00:00 16,0 14,5 16,2 17,8 17,4 14,9 10 6 20 11 ESE 1014,5 - 0 0,0
16.06.2018 12:00:00 16,1 14,2 15,7 17,5 17,3 14,9 16 9 24 13 E 1014,6 - 0 1,0
16.06.2018 11:00:00 16,5 12,2 15,4 18,5 17,3 14,9 13 7 24 13 ESE 1015,0 - 0 0,0
16.06.2018 10:00:00 17,7 11,2 18,4 18,3 17,3 14,9 14 8 24 13 ESE 1015,0 - 0 0,0
16.06.2018 09:00:00 16,4 10,6 17,4 16,7 17,3 14,9 9 5 13 7 E 1015,1 - 0 0,0
16.06.2018 08:00:00 14,8 11,0 14,9 15,9 17,5 14,9 10 5 14 8 E 1015,3 - 0 0,0
16.06.2018 07:00:00 13,8 10,4 13,6 15,4 17,7 14,9 10 5 13 7 ENE 1015,6 - 0 0,0
16.06.2018 06:00:00 13,7 9,9 12,9 15,0 17,9 14,9 10 5 12 6 E 1015,9 - 0 0,0
16.06.2018 05:00:00 11,8 9,9 10,8 15,0 18,2 14,9 8 5 11 6 E 1016,3 - 0 0,0
16.06.2018 04:00:00 12,1 9,6 9,6 15,6 18,5 14,9 6 3 8 4 ENE 1016,7 - 0 0,0
16.06.2018 03:00:00 12,5 9,6 10,9 16,3 18,8 14,9 3 2 6 4 ENE 1016,9 - 0 0,0
16.06.2018 02:00:00 13,3 9,7 12,5 16,8 19,1 14,9 5 3 7 4 ENE 1017,1 - 0 0,0
16.06.2018 01:00:00 13,1 10,3 12,7 17,0 19,4 14,9 6 3 8 4 E 1017,2 - 0 0,0
16.06.2018 00:00:00 12,1 8,7 11,4 17,2 19,8 14,9 3 1 6 4 E 1017,1 - 0 0,0
15.06.2018 23:00:00 12,1 9,2 8,8 18,1 20,1 14,9 3 2 5 3 E 1017,1 - 0 0,0

tt = temperature
td = dewpoint
tt 5cm = temperature 5cm
tt -5cm = temperature -5cm
tt -20cm = temperature -20cm
tt -100cm = temperature -100cm
ff = wind speed
fx = gusts
dd = wind direction
ppp = reduced air pressure
vv = visibility
sd = sunshine duration
rr = precipitation

Next stations